User: anonymous
Location: Shell Point
(30.0571°N, 84.2896°W)
Time: 12:47:54
(UTC-04:00)
Language:

Meteor 2-19 Rocket - Orbit

View from above orbital plane
View from above orbital plane
View from above satellite
View from above satellite

Ground track
Ground track

The orbit data is extracted from the following two-line orbital elements,

1 20671U 90057B   14107.87807646  .00000033  00000-0  16186-4 0  9459
2 20671 082.5494 211.2098 0014177 328.5309 171.0248 13.84570752203058
Epoch (UTC): 17 April 2014 21:04:25
Eccentricity: 0.0014177
inclination: 82.5494°
perigee height: 937 km
apogee height: 958 km
right ascension of ascending node: 211.2098°
argument of perigee: 328.5309°
revolutions per day: 13.84570752
mean anomaly at epoch: 171.0248°
orbit number at epoch: 20305

The dashed part of the orbit path shows where the satellite is in the earth's shadow,  

DLR